Location: Vale
(35.4830°N, 81.3830°W)
Time: 07:29:07
(UTC-05:00)

Amateur Radio Satellites - All Passes

Search period start: 01 March 2015 06:59
Search period end: 02 March 2015 06:59
Location: Vale, 35.4830°N, 81.3830°W

Satellite Date Start Highest point End Downlink Frequencies (MHz)
Time Altitude Azimuth
AIST 1 01 Mar 07:04:29 07:08:18 32° 91° (E) 07:12:14
PRISM 01 Mar 07:25:30 07:27:22 12° 269° (W) 07:29:00 437.425
CUBESAT XI-V 01 Mar 07:31:34 07:34:18 15° 269° (W) 07:36:51 437.345
Cubesat XI-IV 01 Mar 07:39:39 07:44:23 31° 290° (WNW) 07:49:00 437.490
CUTE-I 01 Mar 07:49:25 07:53:51 26° 292° (WNW) 07:58:09 437.470
RS-15 01 Mar 07:56:01 08:06:33 42° 47° (NE) 08:17:40 29.354- 29.394
DOVE 4 01 Mar 08:18:40 08:18:44 10° 88° (E) 08:19:06 437.250
CANX-2 01 Mar 08:25:18 08:28:33 22° 94° (E) 08:31:54 2200.000
SEEDS 01 Mar 08:25:26 08:28:00 16° 92° (E) 08:30:45 437.485
PCSat 01 Mar 08:28:57 08:31:11 12° 255° (WSW) 08:33:05 145.827
SRMSAT 01 Mar 08:31:07 08:33:46 13° 191° (SSW) 08:36:21 437.500
O/OREOS (USA 219) 01 Mar 08:31:41 08:32:17 10° 99° (E) 08:33:13 437.305
HO-68 01 Mar 08:39:41 08:46:19 40° 98° (E) 08:53:01 435.675
AIST 1 01 Mar 08:43:08 08:46:07 17° 287° (WNW) 08:48:57
CUTE 1.7 + AOD 2 01 Mar 08:43:44 08:47:33 32° 97° (E) 08:51:24 437.475
BRITE-PL 01 Mar 08:56:18 09:00:53 80° 101° (ESE) 09:05:08 437.365/2234.400
GONETS M04 01 Mar 09:03:41 09:12:04 50° 77° (ENE) 09:20:32
GOMX 1 01 Mar 09:09:52 09:14:15 73° 101° (E) 09:18:25 467.674
UNISAT 6 01 Mar 09:10:23 09:12:23 13° 68° (ENE) 09:14:35 437.425
CUBEBUG 2 01 Mar 09:10:30 09:11:49 12° 90° (E) 09:13:24 437.445
Oscar 11 01 Mar 09:14:23 09:17:31 20° 93° (E) 09:20:47 145.826/435.025
ISS 01 Mar 09:17:28 09:20:39 67° 136° (SE) 09:23:52 145.825
DELFI C3 01 Mar 09:17:36 09:20:05 16° 92° (E) 09:22:45 145.870
AAUSAT CUBESAT 2 01 Mar 09:33:42 09:37:54 79° 101° (ESE) 09:42:06 437.432
TIGRISAT 01 Mar 09:34:39 09:38:12 24° 71° (ENE) 09:41:46 435.000
COMPASS 1 01 Mar 09:34:55 09:39:08 86° 283° (WNW) 09:43:21 437.405
DX 1 01 Mar 09:36:12 09:38:46 16° 92° (E) 09:41:32 434.975-435.025
ANTELSAT 01 Mar 09:46:48 09:50:47 34° 73° (ENE) 09:54:46 437.575/2403.000
QB50P1 01 Mar 09:49:16 09:52:17 20° 70° (ENE) 09:55:27 145.935-145.965
QB50P2 01 Mar 09:52:18 09:55:31 22° 70° (ENE) 09:58:50 145.880/145.840
DOVE 4 01 Mar 09:52:52 09:57:01 50° 286° (WNW) 10:01:02 437.250
FUNcube-1 01 Mar 09:55:10 09:58:41 27° 96° (E) 10:02:16 145.935
ZACube-1 01 Mar 09:55:45 09:59:19 28° 96° (E) 10:02:56 437.345
SEEDS 01 Mar 10:00:07 10:03:58 34° 287° (WNW) 10:07:47 437.485
CANX-2 01 Mar 10:00:55 10:04:29 26° 288° (WNW) 10:08:00 2200.000
O/OREOS (USA 219) 01 Mar 10:06:45 10:11:14 60° 292° (WNW) 10:15:47 437.305
UKube-1 01 Mar 10:06:49 10:10:46 34° 97° (E) 10:14:44 .
BUGSAT 1 01 Mar 10:08:01 10:11:23 23° 71° (ENE) 10:14:50 437.445
RS-15 01 Mar 10:08:16 10:19:30 58° 247° (WSW) 10:31:04 29.354- 29.394
DUCHIFAT 1 01 Mar 10:08:17 10:12:02 31° 72° (ENE) 10:15:52 145.980
UWE-3 01 Mar 10:10:45 10:14:49 54° 100° (E) 10:18:55 435.000/436.395/437.385
HUMSAT D 01 Mar 10:12:30 10:15:40 22° 94° (E) 10:18:56 437.325/437.525
CINEMA 3 01 Mar 10:13:08 10:17:15 57° 284° (WNW) 10:21:17 145.822/145.860
SO-50 01 Mar 10:17:49 10:21:19 19° 47° (NE) 10:24:55 436.795
CUTE 1.7 + AOD 2 01 Mar 10:20:20 10:23:16 18° 290° (WNW) 10:26:05 437.475
POLYITAN 1 01 Mar 10:26:04 10:30:16 53° 75° (ENE) 10:34:28 437.675
50 SAT 01 Mar 10:26:54 10:29:56 22° 95° (E) 10:33:03 437.505
POPSAT HIP 1 01 Mar 10:27:26 10:31:38 54° 75° (ENE) 10:35:51 437.405
HO-68 01 Mar 10:27:34 10:33:57 35° 294° (WNW) 10:40:15 435.675
UNISAT 6 01 Mar 10:44:32 10:48:51 48° 261° (W) 10:53:05 437.425
CUBEBUG 2 01 Mar 10:44:54 10:48:52 44° 286° (WNW) 10:52:49 437.445
Oscar 11 01 Mar 10:49:59 10:53:46 29° 288° (WNW) 10:57:28 145.826/435.025
NANOSAT C BR1 01 Mar 10:51:11 10:55:28 76° 258° (WSW) 10:59:46 145.865
DELFI C3 01 Mar 10:51:45 10:55:25 32° 287° (WNW) 10:59:03 145.870
ISS 01 Mar 10:55:29 10:57:24 14° 333° (NNW) 10:59:16 145.825
GONETS M04 01 Mar 11:01:09 11:08:37 31° 274° (W) 11:15:52
DANDE 01 Mar 11:02:33 11:03:33 12° 72° (ENE) 11:04:41 436.750
AISAT 01 Mar 11:06:38 11:11:05 72° 102° (ESE) 11:15:30 437.250
DX 1 01 Mar 11:11:10 11:15:14 37° 288° (WNW) 11:19:13 434.975-435.025
TIGRISAT 01 Mar 11:11:11 11:14:54 25° 265° (W) 11:18:29 435.000
CUBEBUG 1 01 Mar 11:16:05 11:20:09 36° 97° (E) 11:24:12 437.445
VELOX 1 01 Mar 11:16:56 11:21:25 88° 285° (WNW) 11:25:50 145.980
QB50P1 01 Mar 11:24:12 11:28:01 30° 263° (W) 11:31:47 145.935-145.965
ANTELSAT 01 Mar 11:24:40 11:27:43 18° 267° (W) 11:30:35 437.575/2403.000
ESTCUBE 1 01 Mar 11:26:22 11:30:51 54° 100° (E) 11:35:18 437.505/2401.250
QB50P2 01 Mar 11:27:37 11:31:19 27° 264° (W) 11:34:57 145.880/145.840
FUNcube-1 01 Mar 11:31:50 11:34:55 20° 289° (WNW) 11:37:53 145.935
ZACube-1 01 Mar 11:32:32 11:35:34 19° 290° (WNW) 11:38:29 437.345
CUSAT 1 01 Mar 11:40:17 11:42:52 85° 269° (W) 11:45:33 437.405
BUGSAT 1 01 Mar 11:43:14 11:46:47 25° 265° (W) 11:50:17 437.445
UKube-1 01 Mar 11:43:43 11:46:42 18° 291° (WNW) 11:49:33 .
DUCHIFAT 1 01 Mar 11:44:55 11:47:59 18° 267° (W) 11:50:54 145.980
HUMSAT D 01 Mar 11:48:04 11:51:26 24° 289° (WNW) 11:54:42 437.325/437.525
UWE-3 01 Mar 11:50:07 11:50:59 10° 293° (WNW) 11:51:36 435.000/436.395/437.385
SPROUT 01 Mar 11:55:02 11:58:25 23° 94° (E) 12:01:53 437.525
SO-50 01 Mar 11:57:24 12:02:12 52° 245° (WSW) 12:06:57 436.795
50 SAT 01 Mar 12:01:46 12:04:54 22° 289° (WNW) 12:07:56 437.505
TISAT 1 01 Mar 12:04:32 12:08:04 26° 96° (E) 12:11:39 437.305
POLYITAN 1 01 Mar 12:05:29 12:06:36 11° 270° (W) 12:07:24 437.675
POPSAT HIP 1 01 Mar 12:07:01 12:07:56 10° 270° (W) 12:08:33 437.405
Oscar 19 01 Mar 12:28:33 12:33:02 32° 71° (ENE) 12:37:36 437.125/150
BEESAT 01 Mar 12:46:03 12:47:08 11° 89° (E) 12:48:33 436.000
CUBEBUG 1 01 Mar 12:53:17 12:56:17 18° 291° (WNW) 12:59:06 437.445
ESTCUBE 1 01 Mar 13:05:06 13:07:19 13° 293° (WNW) 13:09:17 437.505/2401.250
ITUPSAT 1 01 Mar 13:10:18 13:13:53 21° 94° (E) 13:17:36 437.325
Gurwin Techsat 1B 01 Mar 13:26:19 13:30:45 29° 70° (ENE) 13:35:18 435.225
SPROUT 01 Mar 13:30:56 13:34:29 25° 289° (WNW) 13:37:56 437.525
TISAT 1 01 Mar 13:40:30 13:43:47 21° 290° (WNW) 13:46:55 437.305
ITAMSAT 1 01 Mar 14:01:54 14:07:07 88° 77° (ENE) 14:12:24 435.822/435.867
Oscar 19 01 Mar 14:08:08 14:12:26 26° 265° (W) 14:16:36 437.125/150
SWISSCUBE 01 Mar 14:11:47 14:16:36 74° 284° (WNW) 14:21:23 437.505
HORYU 2 01 Mar 14:18:10 14:21:27 21° 70° (ENE) 14:24:51 437.375
BEESAT 01 Mar 14:20:44 14:25:30 64° 285° (WNW) 14:30:14 436.000
AO-7 01 Mar 14:32:17 14:39:18 33° 62° (ENE) 14:46:30 29.400- 29.500
ITUPSAT 1 01 Mar 14:47:31 14:51:53 34° 289° (WNW) 14:56:11 437.325
KKS-1 01 Mar 14:55:36 14:59:57 55° 100° (E) 15:04:18 437.445
STARS 01 Mar 15:05:24 15:09:35 44° 99° (E) 15:13:46 437.465
Gurwin Techsat 1B 01 Mar 15:06:00 15:10:41 31° 264° (W) 15:15:19 435.225
JAS-2 01 Mar 15:19:39 15:24:09 28° 67° (ENE) 15:29:09 435.910
ISS 01 Mar 15:47:52 15:50:28 22° 32° (NNE) 15:53:07 145.825
YUBILEINY 01 Mar 15:52:35 16:00:31 43° 89° (E) 16:08:39 435.215
HORYU 2 01 Mar 15:54:04 15:57:59 30° 263° (W) 16:01:50 437.375
MOZHAYETS 4 01 Mar 15:59:13 16:00:34 11° 89° (E) 16:02:14
M-CUBED/EXP-1 PRIME 01 Mar 16:05:52 16:09:00 20° 100° (E) 16:12:26 437.505
AUBIESAT-1 01 Mar 16:09:05 16:12:11 19° 99° (E) 16:15:32 437.475
AO-7 01 Mar 16:23:41 16:31:49 53° 259° (WSW) 16:39:53 29.400- 29.500
KKS-1 01 Mar 16:34:21 16:36:12 12° 293° (WNW) 16:37:48 437.445
BEESAT 2 01 Mar 16:42:05 16:44:16 15° 110° (ESE) 16:46:39 435.950
STARS 01 Mar 16:43:16 16:45:44 14° 293° (WNW) 16:48:00 437.465
VERMONT LUNAR 01 Mar 16:43:36 16:45:44 16° 144° (SE) 16:47:57 437.305
JAS-2 01 Mar 17:04:26 17:09:13 32° 266° (W) 17:14:21 435.910
Cubesat XI-IV 01 Mar 17:18:45 17:23:33 35° 71° (ENE) 17:28:27 437.490
ISS 01 Mar 17:24:00 17:26:57 32° 227° (SW) 17:29:53 145.825
CUTE-I 01 Mar 17:27:54 17:32:54 43° 72° (ENE) 17:37:59 437.470
MOZHAYETS 4 01 Mar 17:33:40 17:38:15 58° 285° (WNW) 17:42:48
M-CUBED/EXP-1 PRIME 01 Mar 17:40:06 17:43:58 33° 291° (WNW) 17:48:02 437.505
AUBIESAT-1 01 Mar 17:43:10 17:47:04 35° 291° (WNW) 17:51:11 437.475
YUBILEINY 01 Mar 17:49:29 17:57:27 37° 287° (WNW) 18:05:19 435.215
CUBESAT XI-V 01 Mar 17:53:25 17:55:58 15° 91° (E) 17:58:44 437.345
BEESAT 3 01 Mar 17:53:56 17:57:59 66° 301° (WNW) 18:02:07 437.485
AIST 2 01 Mar 18:08:12 18:12:18 52° 115° (ESE) 18:16:28 435.215
PHONESAT 2.4 01 Mar 18:14:35 18:17:59 39° 150° (SSE) 18:21:26 2401.200-2431.200
BEESAT 2 01 Mar 18:18:14 18:22:09 41° 304° (NW) 18:26:06 435.950
VERMONT LUNAR 01 Mar 18:19:51 18:23:20 85° 159° (SSE) 18:26:51 437.305
O/OREOS (USA 219) 01 Mar 18:42:07 18:44:29 14° 56° (NE) 18:47:03 437.305
AIST 1 01 Mar 18:51:44 18:56:10 87° 83° (E) 19:00:34
Cubesat XI-IV 01 Mar 18:59:18 19:03:44 25° 266° (W) 19:08:04 437.490
STRAND 1 01 Mar 19:04:42 19:09:43 52° 100° (E) 19:14:43 437.568
HO-68 01 Mar 19:06:23 19:11:31 23° 62° (ENE) 19:16:54 435.675
PRISM 01 Mar 19:08:28 19:12:42 71° 284° (WNW) 19:16:53 437.425
CUTE-I 01 Mar 19:09:10 19:13:12 21° 267° (W) 19:17:05 437.470
CANX-2 01 Mar 19:17:39 19:18:52 11° 68° (ENE) 19:20:19 2200.000
DOVE 4 01 Mar 19:20:50 19:22:13 11° 67° (ENE) 19:23:53 437.250
CUBESAT XI-V 01 Mar 19:29:12 19:33:43 46° 286° (WNW) 19:38:11 437.345
CUTE 1.7 + AOD 2 01 Mar 19:34:57 19:37:34 17° 70° (ENE) 19:40:20 437.475
PCSat 01 Mar 19:41:16 19:43:47 14° 105° (ESE) 19:46:38 145.827
AIST 2 01 Mar 19:48:41 19:51:16 15° 313° (NW) 19:53:44 435.215
PHONESAT 2.4 01 Mar 19:52:51 19:56:25 53° 345° (NNW) 20:00:00 2401.200-2431.200
VERMONT LUNAR 01 Mar 19:58:12 20:01:28 37° 353° (N) 20:04:46 437.305
BRITE-PL 01 Mar 20:02:30 20:08:09 69° 76° (ENE) 20:13:39 437.365/2234.400
Oscar 11 01 Mar 20:08:23 20:09:38 11° 67° (ENE) 20:11:09 145.826/435.025
GOMX 1 01 Mar 20:13:45 20:19:05 60° 76° (ENE) 20:24:15 467.674
O/OREOS (USA 219) 01 Mar 20:19:51 20:24:19 51° 253° (WSW) 20:28:44 437.305
AAUSAT CUBESAT 2 01 Mar 20:22:02 20:25:46 34° 73° (ENE) 20:29:33 437.432
COMPASS 1 01 Mar 20:23:30 20:27:24 42° 74° (ENE) 20:31:20 437.405
DX 1 01 Mar 20:31:21 20:31:53 10° 66° (ENE) 20:32:42 434.975-435.025
STRAND 1 01 Mar 20:45:14 20:48:32 17° 294° (WNW) 20:51:37 437.568
SEEDS 01 Mar 20:48:51 20:53:01 74° 259° (WSW) 20:57:13 437.485
FUNcube-1 01 Mar 20:49:08 20:51:50 17° 70° (ENE) 20:54:39 145.935
ZACube-1 01 Mar 20:49:51 20:52:38 17° 70° (ENE) 20:55:33 437.345
CANX-2 01 Mar 20:50:19 20:54:26 52° 261° (W) 20:58:33 2200.000
HO-68 01 Mar 20:51:40 20:58:45 63° 258° (WSW) 21:05:50 435.675
DOVE 4 01 Mar 20:54:16 20:59:30 78° 257° (WSW) 21:04:32 437.250
UKube-1 01 Mar 20:59:32 21:02:46 21° 69° (ENE) 21:06:06 .
HUMSAT D 01 Mar 21:03:37 21:05:01 12° 68° (ENE) 21:06:38 437.325/437.525
UWE-3 01 Mar 21:05:10 21:09:08 32° 73° (ENE) 21:13:02 435.000/436.395/437.385
CUTE 1.7 + AOD 2 01 Mar 21:09:25 21:13:17 34° 263° (W) 21:17:07 437.475
CINEMA 3 01 Mar 21:11:08 21:16:01 87° 77° (ENE) 21:20:42 145.822/145.860
PCSat 01 Mar 21:21:21 21:26:43 65° 298° (WNW) 21:32:08 145.827
PHONESAT 2.4 01 Mar 21:31:53 21:35:16 35° 2° (N) 21:38:40 2401.200-2431.200
DELFI C3 01 Mar 21:36:14 21:40:15 80° 258° (WSW) 21:44:18 145.870
VERMONT LUNAR 01 Mar 21:36:29 21:39:49 40° 10° (N) 21:43:08 437.305
CUBEBUG 2 01 Mar 21:39:37 21:44:12 82° 259° (W) 21:48:39 437.445
Oscar 11 01 Mar 21:41:12 21:45:25 55° 260° (W) 21:49:39 145.826/435.025
BRITE-PL 01 Mar 21:44:05 21:47:08 14° 271° (W) 21:49:47 437.365/2234.400
GOMX 1 01 Mar 21:54:24 21:57:34 15° 270° (W) 22:00:23 467.674
AAUSAT CUBESAT 2 01 Mar 21:59:02 22:01:35 15° 268° (W) 22:03:58 437.432
GONETS M04 01 Mar 22:00:31 22:09:01 63° 92° (E) 22:17:34
COMPASS 1 01 Mar 22:01:26 22:03:23 13° 269° (W) 22:05:06 437.405
AISAT 01 Mar 22:01:36 22:05:52 44° 74° (ENE) 22:10:11 437.250
DX 1 01 Mar 22:03:19 22:07:40 65° 259° (W) 22:12:03 434.975-435.025
CUBEBUG 1 01 Mar 22:09:57 22:13:18 22° 70° (ENE) 22:16:47 437.445
VELOX 1 01 Mar 22:11:32 22:15:54 56° 75° (ENE) 22:20:20 145.980
POLYITAN 1 01 Mar 22:17:26 22:18:23 11° 90° (E) 22:19:37 437.675
RS-15 01 Mar 22:17:47 22:26:32 31° 106° (ESE) 22:35:41 29.354- 29.394
POPSAT HIP 1 01 Mar 22:18:28 22:19:29 11° 90° (E) 22:20:47 437.405
ESTCUBE 1 01 Mar 22:23:20 22:27:22 34° 72° (ENE) 22:31:30 437.505/2401.250
FUNcube-1 01 Mar 22:23:50 22:27:57 37° 262° (W) 22:31:58 145.935
ZACube-1 01 Mar 22:24:43 22:28:49 36° 263° (W) 22:32:47 437.345
UKube-1 01 Mar 22:34:58 22:38:47 29° 264° (W) 22:42:33 .
HUMSAT D 01 Mar 22:36:20 22:40:27 50° 260° (W) 22:44:31 437.325/437.525
UNISAT 6 01 Mar 22:39:30 22:43:33 40° 98° (E) 22:47:40 437.425
NANOSAT C BR1 01 Mar 22:40:14 22:43:24 21° 94° (E) 22:46:40 145.865
UWE-3 01 Mar 22:42:27 22:45:44 19° 266° (W) 22:48:51 435.000/436.395/437.385
50 SAT 01 Mar 22:44:39 22:48:35 56° 260° (W) 22:52:30 437.505
SPROUT 01 Mar 22:47:50 22:49:51 13° 68° (ENE) 22:52:05 437.525
TISAT 1 01 Mar 22:55:15 22:57:34 15° 68° (ENE) 23:00:04 437.305
CUSAT 1 01 Mar 23:03:30 23:07:17 17° 94° (E) 23:10:52 437.405
TIGRISAT 01 Mar 23:04:57 23:09:15 82° 102° (ESE) 23:13:35 435.000
PHONESAT 2.4 01 Mar 23:10:26 23:14:04 68° 18° (NNE) 23:17:40 2401.200-2431.200
QB50P1 01 Mar 23:12:03 23:16:11 52° 100° (E) 23:20:18 145.935-145.965
VERMONT LUNAR 01 Mar 23:14:25 23:17:51 62° 206° (SSW) 23:21:16 437.305
QB50P2 01 Mar 23:15:29 23:19:40 59° 100° (E) 23:23:50 145.880/145.840
ANTELSAT 01 Mar 23:17:59 23:22:16 68° 283° (WNW) 23:26:34 437.575/2403.000
BUGSAT 1 01 Mar 23:28:00 23:32:07 59° 101° (E) 23:36:09 437.445
DUCHIFAT 1 01 Mar 23:31:29 23:35:43 89° 310° (NW) 23:39:54 145.980
AISAT 01 Mar 23:40:13 23:42:46 14° 269° (W) 23:45:05 437.250
CUBEBUG 1 01 Mar 23:45:40 23:49:33 29° 264° (W) 23:53:24 437.445
POLYITAN 1 01 Mar 23:50:36 23:54:42 50° 285° (WNW) 23:58:46 437.675
VELOX 1 01 Mar 23:51:29 23:52:55 11° 270° (W) 23:54:04 145.980
POPSAT HIP 1 01 Mar 23:51:39 23:55:45 49° 286° (WNW) 23:59:49 437.405
GONETS M04 01 Mar 23:59:39 00:06:34 25° 292° (WNW) 00:13:10
ESTCUBE 1 02 Mar 00:01:09 00:04:23 19° 267° (W) 00:07:30 437.505/2401.250
DANDE 02 Mar 00:07:15 00:14:24 56° 97° (E) 00:19:56 436.750
ITUPSAT 1 02 Mar 00:14:56 00:18:05 18° 68° (ENE) 00:21:25 437.325
NANOSAT C BR1 02 Mar 00:15:43 00:19:17 26° 289° (WNW) 00:22:45 145.865
UNISAT 6 02 Mar 00:17:34 00:20:05 15° 291° (WNW) 00:22:27 437.425
SPROUT 02 Mar 00:21:24 00:25:35 47° 261° (W) 00:29:47 437.525
RS-15 02 Mar 00:27:24 00:38:14 65° 304° (NW) 00:49:11 29.354- 29.394
TISAT 1 02 Mar 00:29:01 00:33:05 41° 262° (W) 00:37:08 437.305
CUSAT 1 02 Mar 00:43:27 00:50:11 59° 279° (W) 00:55:16 437.405
Oscar 19 02 Mar 00:44:29 00:46:58 14° 90° (E) 00:49:45 437.125/150
PHONESAT 2.4 02 Mar 00:49:17 00:52:21 26° 213° (SSW) 00:55:22 2401.200-2431.200
QB50P1 02 Mar 00:50:10 00:51:40 11° 293° (WNW) 00:52:56 145.935-145.965
QB50P2 02 Mar 00:54:30 00:55:08 10° 294° (WNW) 00:55:29 145.880/145.840
VERMONT LUNAR 02 Mar 00:54:31 00:55:21 11° 218° (SW) 00:56:04 437.305
SWISSCUBE 02 Mar 01:15:15 01:20:02 90° 58° (ENE) 01:24:50 437.505
BEESAT 02 Mar 01:24:05 01:28:50 80° 256° (WSW) 01:33:40 436.000
Gurwin Techsat 1B 02 Mar 01:46:45 01:49:20 14° 90° (E) 01:52:13 435.225
KKS-1 02 Mar 01:51:01 01:55:03 35° 72° (ENE) 01:59:08 437.445
ITUPSAT 1 02 Mar 01:51:12 01:55:43 41° 262° (W) 02:00:14 437.325
DANDE 02 Mar 01:52:44 01:57:47 20° 285° (WNW) 02:01:49 436.750
STARS 02 Mar 01:59:50 02:03:34 28° 71° (ENE) 02:07:22 437.465
YUBILEINY 02 Mar 02:07:46 02:12:55 17° 64° (ENE) 02:18:37 435.215
SO-50 02 Mar 02:08:46 02:13:19 76° 300° (WNW) 02:18:04 436.795
BEESAT 3 02 Mar 02:16:18 02:19:55 29° 53° (NE) 02:23:30 437.485
ITAMSAT 1 02 Mar 02:18:08 02:23:01 40° 98° (E) 02:27:55 435.822/435.867
Oscar 19 02 Mar 02:21:44 02:26:46 57° 286° (WNW) 02:31:46 437.125/150
AIST 2 02 Mar 02:33:56 02:36:32 16° 47° (NE) 02:39:15 435.215
BEESAT 2 02 Mar 02:40:34 02:44:33 45° 57° (ENE) 02:48:30 435.950
RS-15 02 Mar 02:45:58 02:53:31 20° 333° (NNW) 03:00:48 29.354- 29.394
JUGNU 02 Mar 02:52:22 02:55:33 15° 172° (S) 02:58:47 437.505
M-CUBED/EXP-1 PRIME 02 Mar 02:54:36 02:55:40 11° 64° (ENE) 02:56:55 437.505
AUBIESAT-1 02 Mar 02:57:34 02:58:24 11° 63° (ENE) 02:59:24 437.475
Gurwin Techsat 1B 02 Mar 03:24:33 03:29:48 60° 286° (WNW) 03:35:01 435.225
KKS-1 02 Mar 03:28:40 03:31:50 18° 267° (W) 03:34:50 437.445
STARS 02 Mar 03:36:30 03:40:03 22° 265° (W) 03:43:29 437.465
HORYU 2 02 Mar 03:47:46 03:52:11 65° 101° (E) 03:56:36 437.375
BEESAT 3 02 Mar 03:54:42 03:57:52 21° 248° (WSW) 04:00:53 437.485
ITAMSAT 1 02 Mar 03:58:19 04:02:17 22° 292° (WNW) 04:06:06 435.822/435.867
YUBILEINY 02 Mar 04:02:12 04:11:05 86° 264° (W) 04:19:55 435.215
AIST 2 02 Mar 04:11:21 04:15:27 47° 245° (WSW) 04:19:27 435.215
JAS-2 02 Mar 04:14:22 04:21:25 43° 97° (E) 04:28:49 435.910
BEESAT 2 02 Mar 04:20:19 04:22:22 13° 251° (WSW) 04:24:13 435.950
M-CUBED/EXP-1 PRIME 02 Mar 04:27:27 04:30:24 30° 258° (WSW) 04:33:23 437.505
AO-7 02 Mar 04:28:21 04:36:36 66° 104° (ESE) 04:44:49 29.400- 29.500
AUBIESAT-1 02 Mar 04:30:03 04:33:02 31° 258° (WSW) 04:36:04 437.475
MOZHAYETS 4 02 Mar 04:32:24 04:36:57 88° 251° (WSW) 04:41:33
JUGNU 02 Mar 04:40:05 04:43:52 17° 182° (S) 04:47:39 437.505
SRMSAT 02 Mar 04:40:34 04:43:59 16° 173° (S) 04:47:26 437.500
CUBESAT XI-V 02 Mar 04:55:47 04:56:54 11° 66° (ENE) 04:58:20 437.345
RS-15 02 Mar 05:07:49 05:12:20 13° 9° (N) 05:17:07 29.354- 29.394
HORYU 2 02 Mar 05:27:22 05:28:23 11° 294° (WNW) 05:29:08 437.375
Cubesat XI-IV 02 Mar 05:40:00 05:43:27 18° 92° (E) 05:47:07 437.490
CUTE-I 02 Mar 05:48:48 05:52:47 22° 93° (E) 05:56:54 437.470
PRISM 02 Mar 05:55:50 05:59:51 54° 75° (ENE) 06:03:56 437.425
JAS-2 02 Mar 05:59:33 06:06:19 38° 291° (WNW) 06:13:17 435.910
YUBILEINY 02 Mar 06:02:26 06:06:49 14° 280° (W) 06:10:30 435.215
PCSat 02 Mar 06:12:19 06:17:36 52° 60° (ENE) 06:22:52 145.827
STRAND 1 02 Mar 06:17:31 06:22:30 55° 74° (ENE) 06:27:33 437.568
AO-7 02 Mar 06:22:17 06:28:51 26° 300° (WNW) 06:35:07 29.400- 29.500
SRMSAT 02 Mar 06:28:41 06:32:27 17° 183° (S) 06:36:13 437.500
CUBESAT XI-V 02 Mar 06:29:11 06:33:50 68° 258° (WSW) 06:38:33 437.345
JUGNU 02 Mar 06:29:33 06:32:10 13° 191° (SSW) 06:34:43 437.505
